USA 40 R/B DEB, 23395

Orbit data source: Space-Track

USA 40 R/B DEB, 23395 is space debris originally from a launch on Tue, 08 Aug 1989 UTC launched from the Air Force Eastern Test Range (AFETR). Debris objects in space refer to the collection of defunct objects orbiting the Earth. Examples of debris include non-operational satellites, rocket bodies, and fragments generated from explosions, collisions, or faulty payload assembly.

Loading next visibility...
Identifier
23395, 1989-061BT
Orbit
Active
Country
Flag of USUS
Related business
Manufacturer
Unknown
Mission
Spacecraft
Bus & Motor
Unknown
Mass
Unknown
Launch date (UTC)
1989-08-08 (37 years ago)
Launch vehicle
Unknown
Launch site
Air Force Eastern Test Range (AFETR)
Object type
Payload
Rocket body
Debris
Shape & HBR
Unknown shape, 0.1 m
Radar Cross Section
Small (<0.1 m²)

Expand to show TLE details & history
Last TLE update: 1 day ago

TLE from 1 day ago
0 USA 40 R/B DEB
1 23395U 89061BT  26093.55381612  .00038473  00000-0  19562-1 0  9996
2 23395  57.1332 173.0204 2973716 222.2341 110.7089  9.01960396 74890
Epoch: 2026-04-03T13:17Z
TLE epoch observation values (Epoch: 2026-04-03T13:17:29.712Z)
Latitude
0.00004°
Longitude
141.76034°
Altitude
5,022.031 km
Speed
5.39 km/s
True Right ascension
11h 32m 04s
True Declination
0° 00' 00"
Sunlit
Object was in full shadow at epoch
Visualization orbit readout
Latitude
Unknown
Longitude
Unknown
Altitude
Unknown
Speed
Unknown
Apparent Right ascension
Unknown
Apparent Declination
Unknown
Sunlit
N/A
Visualization observer readout
Local Sidereal Time
02:39:00
Azimuth
Unknown
Elevation
Unknown
Doppler factor
Unknown
Orbital elements
Apogee altitude
6,269.073 km
Perigee altitude
471.318 km
Semi-major axis
9,748.332 km
Eccentricity
0.29737
Inclination
57.1332°
RAAN
173.0204°
Arg. of periapsis
222.2341°
True anomaly
137.84359°
Mean anomaly
110.7089°
Eccentric anomaly
124.71428°
Mean motion
2.25501 °/min
Orbital period
159.64 mins
BSTAR
0.019562
Loading maneuver chart data...
Computing Atmospheric mass density...
Loading historical data...
Loading historical data...
Loading historical data...
Loading historical data...
Loading historical data...
Loading historical data...
Loading historical data...

Documentation

Showing up to 5 results
|